Content
SEND FEEDBACK

Daily
Averages
Monthly
Summary
United States of America

GLENVIEW, ILLINOIS


Home > North America > United States > Illinois
Elevation: 653 feet     Latitude: 42 05N     Longitude: 087 50W

WEATHER
 
SELECT A DAY
Number of Records: 194,820;   Date Range: 7/8/95 - 7/23/14
 
SHARE

PRINT THIS DATA

[ ← Previous Day ]
WEATHER ALMANAC - JANUARY 11, 2013
[ Next Day → ]
[ °C ]   °F
Weather ElementAverageHighLow
Temperature49.4 °F52 °F (6:52 am)43 °F (1:52 am)
Dewpoint47.2 °F52 °F (6:52 am)42.1 °F (1:52 am)
Humidity92.3 %100 % (2:41 am)82 % (4:08 pm)
Barometer29.74 in29.83 in (1:52 am)29.68 in (4:52 am)
Wind Speed10.8 mph19.6 mph (11:52 pm)
Wind Gust27.6 mph (11:52 pm)
Weather ElementAverage
Visibility6 mi
Wind DirectionSSW (188.5 °)

Weather ElementTotal
Precipitation0.60 in
Heating Degree Days17.5 (Base 65)
Averaged from 39 records on January 11, 2013
WEATHER CONDITIONS BREAKOUT
WIND DIRECTION BREAKOUT
WEATHER BY HOUR - JANUARY 11, 2013
[ °C ]   °F
Local TimeTemperatureDewpointHumidityBarometerVisibilityWind DirectionWind SpeedGust SpeedPrecipitationEventsConditions
1:52 AM43.0 °F42.1 °F97 %29.83 in3.0 miSE (130°)5.8 mph0.04 inRainLight Rain
2:02 AM44.6 °F42.8 °F93 %29.81 in2.0 miSE (130°)4.6 mph0.02 inRainLight Rain
2:31 AM44.6 °F42.8 °F93 %29.79 in1.5 miSSE (150°)5.8 mph0.16 inRainHeavy Rain
2:41 AM44.6 °F44.6 °F100 %29.79 in3.0 miSSE (150°)4.6 mph0.16 inRainLight Rain
2:52 AM45.0 °F44.1 °F97 %29.80 in2.0 miSSE (160°)5.8 mph0.18 inRainRain
3:04 AM44.6 °F44.6 °F100 %29.78 in4.0 miSSE (160°)6.9 mph0.01 inRainLight Rain
3:52 AM46.9 °F46.0 °F97 %29.74 in3.0 miSSE (150°)6.9 mph0.01 inOvercast
4:09 AM46.4 °F46.4 °F100 %29.71 in2.5 miSSE (160°)5.8 mphOvercast
4:29 AM48.2 °F46.4 °F93 %29.69 in3.0 miSSE (160°)6.9 mph0.00 inRainLight Rain
4:52 AM48.9 °F48.0 °F97 %29.68 in4.0 miSouth (170°)8.1 mph0.00 inOvercast
5:52 AM51.1 °F50.0 °F96 %29.69 in5.0 miSouth (180°)11.5 mph0.00 inOvercast
6:12 AM51.8 °F51.8 °F100 %29.69 in1.8 miSSW (200°)10.4 mphOvercast
6:20 AM51.8 °F51.8 °F100 %29.69 in1.2 miSSW (200°)11.5 mphOvercast
6:27 AM51.8 °F51.8 °F100 %29.69 in1.0 miSSW (200°)11.5 mphOvercast
6:52 AM52.0 °F52.0 °F100 %29.71 in1.0 miSouth (190°)10.4 mphOvercast
7:31 AM51.8 °F51.8 °F100 %29.72 in1.0 miSSW (200°)8.1 mph0.01 inRainLight Rain
7:52 AM52.0 °F51.1 °F97 %29.73 in6.0 miWSW (240°)8.1 mph0.01 inOvercast
8:09 AM51.8 °F51.8 °F100 %29.73 in8.0 miSW (230°)8.1 mphOvercast
8:52 AM50.0 °F48.9 °F96 %29.76 in10.0 miWSW (240°)8.1 mphOvercast
9:52 AM50.0 °F46.9 °F89 %29.77 in10.0 miSW (230°)9.2 mphOvercast
10:50 AM48.2 °F46.4 °F93 %29.78 in4.0 miSW (230°)11.5 mph19.6 mphOvercast
10:52 AM48.9 °F46.9 °F93 %29.79 in4.0 miSW (220°)12.7 mph19.6 mphOvercast
11:16 AM48.2 °F46.4 °F93 %29.76 in7.0 miSSW (210°)15.0 mph20.7 mphOvercast
11:52 AM48.0 °F46.0 °F93 %29.76 in10.0 miSW (230°)12.7 mph20.7 mphOvercast
12:52 PM48.0 °F46.0 °F93 %29.77 in10.0 miSSW (200°)9.2 mphOvercast
1:52 PM48.9 °F46.0 °F90 %29.77 in6.0 miSSW (200°)11.5 mphOvercast
2:27 PM50.0 °F46.4 °F87 %29.77 in7.0 miSW (220°)10.4 mphOvercast
2:52 PM50.0 °F46.0 °F86 %29.77 in9.0 miSouth (190°)11.5 mphOvercast
3:52 PM51.1 °F46.0 °F83 %29.75 in8.0 miSouth (180°)10.4 mphOvercast
4:08 PM51.8 °F46.4 °F82 %29.75 in8.0 miSouth (190°)13.8 mphOvercast
4:52 PM51.1 °F46.0 °F83 %29.75 in9.0 miSouth (180°)12.7 mphMostly Cloudy
5:11 PM50.0 °F46.4 °F87 %29.74 in10.0 miSouth (180°)12.7 mphScattered Clouds
5:52 PM51.1 °F46.9 °F86 %29.73 in9.0 miSouth (170°)12.7 mphPartly Cloudy
6:52 PM51.1 °F46.9 °F86 %29.74 in10.0 miSouth (180°)15.0 mphClear
7:52 PM52.0 °F46.9 °F83 %29.74 in10.0 miSouth (180°)18.4 mphClear
8:52 PM52.0 °F46.9 °F83 %29.72 in10.0 miSouth (190°)18.4 mph26.5 mphClear
9:52 PM51.1 °F46.9 °F86 %29.71 in10.0 miSouth (190°)18.4 mph25.3 mphClear
10:52 PM52.0 °F46.9 °F83 %29.71 in10.0 miSouth (190°)15.0 mph25.3 mphClear
11:52 PM52.0 °F46.9 °F83 %29.71 in10.0 miSouth (190°)19.6 mph27.6 mphClear
Hourly data recorded from KPWK, located miles away from Glenview, Illinois







STORIES FROM OUR PARTNERS